Time,TemperatureF,DewpointF,PressureIn,WindDirection,WindDirectionDegrees,WindSpeedMPH,WindSpeedGustMPH,Humidity,HourlyPrecipIn,Conditions,Clouds,dailyrainin,SoftwareType,DateUTC
2013-01-19 00:02:00,40.0,26.0,30.24,ESE,122,3.0,9.0,58,0.00,,,0.00,,2013-01-19 06:02:00,
2013-01-19 00:12:00,40.0,26.0,30.24,ESE,122,3.0,9.0,58,0.00,,,0.00,,2013-01-19 06:12:00,
2013-01-19 00:22:00,40.0,26.0,30.24,ESE,122,3.0,9.0,58,0.00,,,0.00,,2013-01-19 06:22:00,
2013-01-19 00:32:00,40.0,27.0,30.23,SSW,212,9.0,9.0,59,0.00,,,0.00,,2013-01-19 06:32:00,
2013-01-19 00:43:00,40.0,27.0,30.23,SSW,212,9.0,9.0,59,0.00,,,0.00,,2013-01-19 06:43:00,
2013-01-19 00:53:00,40.0,27.0,30.23,SSE,165,8.0,8.0,60,0.00,,,0.00,,2013-01-19 06:53:00,
2013-01-19 01:02:00,39.0,27.0,30.23,SSW,207,5.0,6.0,61,0.00,,,0.00,,2013-01-19 07:02:00,
2013-01-19 01:12:00,39.0,27.0,30.23,SSW,207,5.0,6.0,61,0.00,,,0.00,,2013-01-19 07:12:00,
2013-01-19 01:22:00,39.0,27.0,30.23,South,182,9.0,11.0,61,0.00,,,0.00,,2013-01-19 07:22:00,
2013-01-19 01:33:00,39.0,27.0,30.24,South,174,2.0,3.0,62,0.00,,,0.00,,2013-01-19 07:33:00,
2013-01-19 01:42:00,39.0,27.0,30.24,South,174,2.0,3.0,62,0.00,,,0.00,,2013-01-19 07:42:00,
2013-01-19 01:52:00,38.0,26.0,30.24,SSE,157,1.0,3.0,62,0.00,,,0.00,,2013-01-19 07:52:00,
2013-01-19 02:02:00,38.0,27.0,30.24,SE,127,4.0,6.0,64,0.00,,,0.00,,2013-01-19 08:02:00,
2013-01-19 02:12:00,38.0,27.0,30.24,SE,127,4.0,6.0,64,0.00,,,0.00,,2013-01-19 08:12:00,
2013-01-19 02:22:00,38.0,27.0,30.24,South,187,1.0,3.0,64,0.00,,,0.00,,2013-01-19 08:22:00,
2013-01-19 02:32:00,38.0,27.0,30.24,SSE,158,1.0,3.0,64,0.00,,,0.00,,2013-01-19 08:32:00,
2013-01-19 02:42:00,38.0,27.0,30.24,SSE,158,1.0,3.0,64,0.00,,,0.00,,2013-01-19 08:42:00,
2013-01-19 02:52:00,37.0,26.0,30.24,SSE,158,1.0,2.0,65,0.00,,,0.00,,2013-01-19 08:52:00,
2013-01-19 03:02:00,37.0,26.0,30.24,South,178,1.0,3.0,65,0.00,,,0.00,,2013-01-19 09:02:00,
2013-01-19 03:12:00,37.0,26.0,30.24,South,178,1.0,3.0,65,0.00,,,0.00,,2013-01-19 09:12:00,
2013-01-19 03:22:00,37.0,26.0,30.24,SSE,156,1.0,1.0,65,0.00,,,0.00,,2013-01-19 09:22:00,
2013-01-19 03:32:00,37.0,26.0,30.23,SSE,161,1.0,3.0,65,0.00,,,0.00,,2013-01-19 09:32:00,
2013-01-19 03:42:00,37.0,26.0,30.23,SSE,161,1.0,3.0,65,0.00,,,0.00,,2013-01-19 09:42:00,
2013-01-19 03:52:00,37.0,26.0,30.23,SSE,163,3.0,3.0,65,0.00,,,0.00,,2013-01-19 09:52:00,
2013-01-19 04:02:00,38.0,27.0,30.22,SSW,197,0.0,3.0,65,0.00,,,0.00,,2013-01-19 10:02:00,
2013-01-19 04:12:00,38.0,27.0,30.22,SSW,197,0.0,3.0,65,0.00,,,0.00,,2013-01-19 10:12:00,
2013-01-19 04:22:00,38.0,27.0,30.22,SE,143,1.0,3.0,65,0.00,,,0.00,,2013-01-19 10:22:00,
2013-01-19 04:32:00,38.0,27.0,30.22,SE,146,3.0,3.0,65,0.00,,,0.00,,2013-01-19 10:32:00,
2013-01-19 04:42:00,38.0,27.0,30.22,SE,146,3.0,3.0,65,0.00,,,0.00,,2013-01-19 10:42:00,
2013-01-19 04:52:00,38.0,27.0,30.22,SSE,167,2.0,6.0,65,0.00,,,0.00,,2013-01-19 10:52:00,
2013-01-19 05:03:00,38.0,27.0,30.21,ESE,111,3.0,3.0,65,0.00,,,0.00,,2013-01-19 11:03:00,
2013-01-19 05:12:00,38.0,27.0,30.21,ESE,111,3.0,3.0,65,0.00,,,0.00,,2013-01-19 11:12:00,
2013-01-19 06:48:00,38.0,28.0,30.21,South,188,3.0,9.0,66,0.00,,,0.00,,2013-01-19 12:48:00,
2013-01-19 06:52:00,38.0,28.0,30.21,SE,138,3.0,6.0,66,0.00,,,0.00,,2013-01-19 12:52:00,
2013-01-19 07:03:00,38.0,28.0,30.20,SE,140,2.0,3.0,68,0.00,,,0.00,,2013-01-19 13:03:00,
2013-01-19 07:12:00,38.0,28.0,30.20,SE,140,2.0,3.0,68,0.00,,,0.00,,2013-01-19 13:12:00,
2013-01-19 07:22:00,38.0,29.0,30.20,SSE,165,3.0,3.0,69,0.00,,,0.00,,2013-01-19 13:22:00,
2013-01-19 07:33:00,38.0,29.0,30.20,SSE,159,3.0,3.0,70,0.00,,,0.00,,2013-01-19 13:33:00,
2013-01-19 07:42:00,38.0,29.0,30.20,SSE,159,3.0,3.0,70,0.00,,,0.00,,2013-01-19 13:42:00,
2013-01-19 07:52:00,38.0,29.0,30.20,East,90,3.0,4.0,70,0.00,,,0.00,,2013-01-19 13:52:00,
2013-01-19 08:02:00,38.0,29.0,30.19,SSE,160,3.0,4.0,71,0.00,,,0.00,,2013-01-19 14:02:00,
2013-01-19 08:12:00,38.0,29.0,30.19,SSE,160,3.0,4.0,71,0.00,,,0.00,,2013-01-19 14:12:00,
2013-01-19 08:23:00,38.0,29.0,30.19,South,186,3.0,6.0,71,0.00,,,0.00,,2013-01-19 14:23:00,
2013-01-19 08:34:00,39.0,30.0,30.19,SSE,166,5.0,6.0,70,0.00,,,0.00,,2013-01-19 14:34:00,
2013-01-19 08:42:00,39.0,30.0,30.19,SSE,166,5.0,6.0,70,0.00,,,0.00,,2013-01-19 14:42:00,
2013-01-19 08:53:00,40.0,30.0,30.19,SSE,166,3.0,6.0,68,0.00,,,0.00,,2013-01-19 14:53:00,
2013-01-19 09:03:00,41.0,30.0,30.18,SSW,194,4.0,8.0,65,0.00,,,0.00,,2013-01-19 15:03:00,
2013-01-19 09:12:00,41.0,30.0,30.18,SSW,194,4.0,8.0,65,0.00,,,0.00,,2013-01-19 15:12:00,
2013-01-19 09:23:00,42.0,31.0,30.18,SE,124,5.0,5.0,64,0.00,,,0.00,,2013-01-19 15:23:00,
2013-01-19 09:33:00,43.0,31.0,30.18,SE,132,8.0,10.0,63,0.00,,,0.00,,2013-01-19 15:33:00,
2013-01-19 09:43:00,43.0,31.0,30.18,SE,132,8.0,10.0,63,0.00,,,0.00,,2013-01-19 15:43:00,
2013-01-19 09:53:00,44.0,31.0,30.18,SSW,202,3.0,5.0,61,0.00,,,0.00,,2013-01-19 15:53:00,
2013-01-19 10:03:00,45.0,32.0,30.16,SSW,205,3.0,4.0,60,0.00,,,0.00,,2013-01-19 16:03:00,
2013-01-19 10:13:00,45.0,32.0,30.16,SSW,205,3.0,4.0,60,0.00,,,0.00,,2013-01-19 16:13:00,
2013-01-19 10:23:00,46.0,32.0,30.16,SSE,162,2.0,4.0,59,0.00,,,0.00,,2013-01-19 16:23:00,
2013-01-19 10:33:00,48.0,34.0,30.14,SSE,157,6.0,6.0,57,0.00,,,0.00,,2013-01-19 16:33:00,
2013-01-19 10:43:00,48.0,34.0,30.14,SSE,157,6.0,6.0,57,0.00,,,0.00,,2013-01-19 16:43:00,
2013-01-19 10:53:00,49.0,33.0,30.14,South,169,2.0,9.0,53,0.00,,,0.00,,2013-01-19 16:53:00,
2013-01-19 11:03:00,50.0,32.0,30.12,South,175,3.0,3.0,50,0.00,,,0.00,,2013-01-19 17:03:00,
2013-01-19 11:18:00,50.0,32.0,30.12,South,175,3.0,3.0,50,0.00,,,0.00,,2013-01-19 17:18:00,
2013-01-19 11:28:00,51.0,34.0,30.12,South,175,4.0,8.0,51,0.00,,,0.00,,2013-01-19 17:28:00,
2013-01-19 11:35:00,52.0,33.0,30.09,SSE,154,2.0,3.0,48,0.00,,,0.00,,2013-01-19 17:35:00,
2013-01-19 11:47:00,52.0,33.0,30.09,SSE,154,2.0,3.0,48,0.00,,,0.00,,2013-01-19 17:47:00,
2013-01-19 11:53:00,53.0,35.0,30.09,SSW,213,11.0,11.0,51,0.00,,,0.00,,2013-01-19 17:53:00,
2013-01-19 12:13:00,53.0,34.0,30.06,South,187,1.0,17.0,48,0.00,,,0.00,,2013-01-19 18:13:00,
2013-01-19 12:25:00,54.0,36.0,30.06,SSE,168,2.0,5.0,50,0.00,,,0.00,,2013-01-19 18:25:00,
2013-01-19 12:35:00,54.0,35.0,30.04,WSW,242,5.0,10.0,48,0.00,,,0.00,,2013-01-19 18:35:00,
2013-01-19 12:45:00,54.0,35.0,30.04,WSW,242,5.0,10.0,48,0.00,,,0.00,,2013-01-19 18:45:00,
2013-01-19 12:55:00,55.0,35.0,30.04,SSW,213,5.0,6.0,47,0.00,,,0.00,,2013-01-19 18:55:00,
2013-01-19 13:08:00,55.0,35.0,30.02,South,183,10.0,10.0,47,0.00,,,0.00,,2013-01-19 19:08:00,
2013-01-19 13:28:00,56.0,36.0,30.02,South,186,4.0,15.0,46,0.00,,,0.00,,2013-01-19 19:28:00,
2013-01-19 13:38:00,56.0,35.0,30.00,SW,230,8.0,17.0,45,0.00,,,0.00,,2013-01-19 19:38:00,
2013-01-19 13:45:00,56.0,35.0,30.00,SW,230,8.0,17.0,45,0.00,,,0.00,,2013-01-19 19:45:00,
2013-01-19 13:54:00,56.0,35.0,30.00,SW,230,8.0,17.0,45,0.00,,,0.00,,2013-01-19 19:54:00,
2013-01-19 14:09:00,57.0,35.0,29.98,South,173,5.0,11.0,44,0.00,,,0.00,,2013-01-19 20:09:00,
2013-01-19 14:25:00,57.0,35.0,29.98,South,184,5.0,20.0,44,0.00,,,0.00,,2013-01-19 20:25:00,
2013-01-19 14:38:00,57.0,36.0,29.97,SW,222,6.0,18.0,46,0.00,,,0.00,,2013-01-19 20:38:00,
2013-01-19 14:45:00,57.0,36.0,29.97,SW,222,6.0,18.0,46,0.00,,,0.00,,2013-01-19 20:45:00,
2013-01-19 14:54:00,57.0,36.0,29.97,South,171,4.0,10.0,46,0.00,,,0.00,,2013-01-19 20:54:00,
2013-01-19 15:06:00,57.0,37.0,29.96,SSE,151,2.0,6.0,47,0.00,,,0.00,,2013-01-19 21:06:00,
2013-01-19 15:14:00,57.0,37.0,29.96,SSE,151,2.0,6.0,47,0.00,,,0.00,,2013-01-19 21:14:00,
2013-01-19 15:25:00,57.0,38.0,29.96,NW,319,8.0,9.0,48,0.00,,,0.00,,2013-01-19 21:25:00,
2013-01-19 15:49:00,56.0,37.0,29.95,South,184,9.0,9.0,48,0.00,,,0.00,,2013-01-19 21:49:00,
2013-01-19 15:56:00,56.0,37.0,29.95,SSE,161,5.0,13.0,48,0.00,,,0.00,,2013-01-19 21:56:00,
2013-01-19 16:12:00,56.0,37.0,29.94,SSE,163,4.0,13.0,49,0.00,,,0.00,,2013-01-19 22:12:00,
2013-01-19 16:25:00,55.0,37.0,29.94,South,186,3.0,10.0,51,0.00,,,0.00,,2013-01-19 22:25:00,
2013-01-19 16:34:00,55.0,38.0,29.96,South,176,2.0,10.0,52,0.00,,,0.00,,2013-01-19 22:34:00,
2013-01-19 16:45:00,55.0,38.0,29.96,South,176,2.0,10.0,52,0.00,,,0.00,,2013-01-19 22:45:00,
2013-01-19 16:54:00,54.0,38.0,29.96,South,180,4.0,8.0,54,0.00,,,0.00,,2013-01-19 22:54:00,
2013-01-19 17:13:00,53.0,37.0,29.96,SSW,198,1.0,1.0,55,0.00,,,0.00,,2013-01-19 23:13:00,
2013-01-19 17:25:00,53.0,37.0,29.96,SSE,147,4.0,8.0,55,0.00,,,0.00,,2013-01-19 23:25:00,
2013-01-19 17:34:00,52.0,37.0,29.97,South,174,4.0,4.0,56,0.00,,,0.00,,2013-01-19 23:34:00,
2013-01-19 17:45:00,52.0,37.0,29.97,South,174,4.0,4.0,56,0.00,,,0.00,,2013-01-19 23:45:00,
2013-01-19 17:58:00,52.0,37.0,29.97,South,189,4.0,6.0,57,0.00,,,0.00,,2013-01-19 23:58:00,
2013-01-19 18:08:00,51.0,37.0,29.98,SE,127,3.0,9.0,59,0.00,,,0.00,,2013-01-20 00:08:00,
2013-01-19 18:15:00,51.0,37.0,29.98,SE,127,3.0,9.0,59,0.00,,,0.00,,2013-01-20 00:15:00,
2013-01-19 18:25:00,51.0,37.0,29.98,SE,127,3.0,9.0,59,0.00,,,0.00,,2013-01-20 00:25:00,
2013-01-19 18:35:00,50.0,38.0,29.99,South,178,3.0,12.0,62,0.00,,,0.00,,2013-01-20 00:35:00,
2013-01-19 18:45:00,50.0,38.0,29.99,South,178,3.0,12.0,62,0.00,,,0.00,,2013-01-20 00:45:00,
2013-01-19 18:56:00,50.0,38.0,29.99,South,180,9.0,9.0,62,0.00,,,0.00,,2013-01-20 00:56:00,
2013-01-19 19:04:00,50.0,38.0,30.00,South,182,12.0,12.0,64,0.00,,,0.00,,2013-01-20 01:04:00,
2013-01-19 19:19:00,50.0,38.0,30.00,South,182,12.0,12.0,64,0.00,,,0.00,,2013-01-20 01:19:00,
2013-01-19 19:25:00,49.0,37.0,30.00,SE,143,3.0,5.0,64,0.00,,,0.00,,2013-01-20 01:25:00,
2013-01-19 19:36:00,49.0,38.0,30.01,SE,143,2.0,8.0,66,0.00,,,0.00,,2013-01-20 01:36:00,
2013-01-19 19:45:00,49.0,38.0,30.01,SE,143,2.0,8.0,66,0.00,,,0.00,,2013-01-20 01:45:00,
2013-01-19 19:57:00,49.0,38.0,30.01,SSE,162,3.0,9.0,66,0.00,,,0.00,,2013-01-20 01:57:00,
2013-01-19 20:07:00,49.0,39.0,30.01,SSW,209,1.0,4.0,67,0.00,,,0.00,,2013-01-20 02:07:00,
2013-01-19 20:14:00,49.0,39.0,30.01,SSW,209,1.0,4.0,67,0.00,,,0.00,,2013-01-20 02:14:00,
2013-01-19 20:25:00,49.0,39.0,30.01,SSW,201,3.0,12.0,68,0.00,,,0.00,,2013-01-20 02:25:00,
2013-01-19 20:35:00,48.0,38.0,30.01,SW,218,1.0,5.0,68,0.00,,,0.00,,2013-01-20 02:35:00,
2013-01-19 20:55:00,48.0,38.0,30.01,South,189,4.0,10.0,68,0.00,,,0.00,,2013-01-20 02:55:00,
2013-01-19 21:08:00,48.0,38.0,30.02,WSW,238,9.0,9.0,69,0.00,,,0.00,,2013-01-20 03:08:00,
2013-01-19 21:14:00,48.0,38.0,30.02,WSW,238,9.0,9.0,69,0.00,,,0.00,,2013-01-20 03:14:00,
2013-01-19 21:38:00,48.0,39.0,30.03,SW,218,3.0,8.0,70,0.00,,,0.00,,2013-01-20 03:38:00,
2013-01-19 21:45:00,48.0,39.0,30.03,SW,218,3.0,8.0,70,0.00,,,0.00,,2013-01-20 03:45:00,
2013-01-19 21:54:00,48.0,39.0,30.03,SW,215,0.0,5.0,70,0.00,,,0.00,,2013-01-20 03:54:00,
2013-01-19 22:05:00,47.0,38.0,30.04,South,190,3.0,6.0,72,0.00,,,0.00,,2013-01-20 04:05:00,
2013-01-19 22:14:00,47.0,38.0,30.04,South,190,3.0,6.0,72,0.00,,,0.00,,2013-01-20 04:14:00,
2013-01-19 22:25:00,47.0,38.0,30.04,SSW,197,5.0,8.0,72,0.00,,,0.00,,2013-01-20 04:25:00,
2013-01-19 22:35:00,46.0,38.0,30.03,South,190,5.0,11.0,74,0.00,,,0.00,,2013-01-20 04:35:00,
2013-01-19 22:44:00,46.0,38.0,30.03,South,190,5.0,11.0,74,0.00,,,0.00,,2013-01-20 04:44:00,
2013-01-19 22:54:00,46.0,38.0,30.03,SSW,198,4.0,4.0,74,0.00,,,0.00,,2013-01-20 04:54:00,
2013-01-19 23:04:00,46.0,39.0,30.04,SW,229,0.0,2.0,75,0.00,,,0.00,,2013-01-20 05:04:00,
2013-01-19 23:12:00,46.0,39.0,30.04,SW,229,0.0,2.0,75,0.00,,,0.00,,2013-01-20 05:12:00,
2013-01-19 23:22:00,46.0,39.0,30.04,SSW,193,3.0,3.0,75,0.00,,,0.00,,2013-01-20 05:22:00,
2013-01-19 23:32:00,45.0,38.0,30.04,SW,215,3.0,3.0,76,0.00,,,0.00,,2013-01-20 05:32:00,
2013-01-19 23:42:00,45.0,38.0,30.04,SW,215,3.0,3.0,76,0.00,,,0.00,,2013-01-20 05:42:00,
2013-01-19 23:53:00,45.0,38.0,30.04,South,184,3.0,3.0,76,0.00,,,0.00,,2013-01-20 05:53:00,